[Iaude] MPEC J289: 2024 JK15 [a=2.41,e=0.62,i=33.9,H=26.1]
    mpec at cfa.harvard.edu 
    mpec at cfa.harvard.edu
       
    Sun May 12 20:14:33 EDT 2024
    
    
  
M.P.E.C. 2024-J289                                 Issued 2024 May 13, 00:12 UT
     The Minor Planet Electronic Circulars contain information on unusual
         minor planets, routine data on comets and natural satellites,
         and occasional editorial announcements.  They are published
    on behalf of Division F of the International Astronomical Union by the
          Minor Planet Center, Smithsonian Astrophysical Observatory,
                          Cambridge, MA 02138, U.S.A.
			  
             Prepared using the Tamkin Foundation Computer Network
                              MPC at CFA.HARVARD.EDU
            URL https://www.minorplanetcenter.net/    ISSN 1523-6714
                                   2024 JK15                                    
Observations:
     K24J15K  C2024 05 12.26960914 52 59.494-00 02 36.16         17.24RUEJ289I41
     K24J15K  C2024 05 12.26995714 53 00.962-00 01 41.71         17.24RUEJ289I41
     K24J15K  C2024 05 12.32165614 56 39.960+02 08 34.16         18.07gUEJ289I41
     K24J15K  C2024 05 12.32200314 56 41.301+02 09 23.06         18.07gUEJ289I41
     K24J15K* C2024 05 12.36883014 59 46.744+03 59 15.47         17.80gUEJ289I41
     K24J15K  C2024 05 12.36917714 59 48.159+04 00 05.14         17.80gUEJ289I41
     K24J15K  C2024 05 12.41521615 02 40.504+05 40 56.74         17.52RUEJ289I41
     K24J15K  C2024 05 12.41556315 02 41.772+05 41 41.41         17.52RUEJ289I41
     K24J15K KC2024 05 12.82184 15 23 44.006+16 35 40.60         18.6 VZEJ289M38
     K24J15K KC2024 05 12.82433 15 23 49.500+16 38 38.87         18.2 VZEJ289M38
     K24J15K KC2024 05 12.82659 15 23 55.26 +16 41 21.7          18.6 GoEJ289K88
     K24J15K KC2024 05 12.82831 15 23 59.07 +16 43 27.0          18.5 GoEJ289K88
     K24J15K KC2024 05 12.85268715 25 00.48 +17 12 29.3          19.1 GXEJ289958
     K24J15K KC2024 05 12.85406215 24 56.89 +17 13 35.4          17.8 GVEJ289G34
     K24J15K KC2024 05 12.85666415 25 09.18 +17 17 08.2          19.0 GXEJ289958
     K24J15K KC2024 05 12.85733215 25 03.99 +17 17 23.9          18.1 GVEJ289G34
     K24J15K KC2024 05 12.85897115 25 07.54 +17 19 17.8          18.2 GVEJ289G34
     K24J15K KC2024 05 12.86060015 25 17.68 +17 21 43.2          19.2 GXEJ289958
     K24J15K 1C2024 05 12.86212 15 25 14.91 +17 22 52.9          18.2 VXEJ289033
     K24J15K 1C2024 05 12.86244 15 25 15.58 +17 23 14.4          18.9 VXEJ289033
     K24J15K 1C2024 05 12.86275 15 25 16.26 +17 23 36.2          18.5 VXEJ289033
     K24J15K 1C2024 05 12.86350 15 25 17.88 +17 24 28.3          18.8 VXEJ289033
     K24J15K KC2024 05 12.86550715 25 21.59 +17 26 50.9          17.9 GVEJ289G34
     K24J15K KC2024 05 12.87995 15 25 50.92 +17 43 33.9          18.3 GXEJ289G02
     K24J15K KC2024 05 12.88139715 25 55.36 +17 44 57.1          18.8 GVEJ289K62
     K24J15K KC2024 05 12.88212015 25 56.86 +17 45 45.8          19.0 GVEJ289K62
     K24J15K KC2024 05 12.88284015 25 58.38 +17 46 34.6          18.8 GVEJ289K62
     K24J15K KC2024 05 12.88316 15 25 57.65 +17 47 10.4          18.2 GXEJ289G02
     K24J15K KC2024 05 12.88355615 25 59.89 +17 47 23.0          18.9 GVEJ289K62
     K24J15K KC2024 05 12.88637 15 26 04.32 +17 50 46.2          18.2 GXEJ289G02
     K24J15K KC2024 05 12.91358015 27 06.408+18 20 12.34         18.8 GVEJ289Z80
     K24J15K KC2024 05 12.92231115 27 24.137+18 29 35.95         18.7 GVEJ289Z80
     K24J15K KC2024 05 12.93521215 27 49.843+18 43 18.41         18.9 GVEJ289Z80
     K24J15K KB2024 05 12.94243 15 28 00.79 +18 50 46.0          19.2 GVEJ289L65
     K24J15K KB2024 05 12.96165 15 28 38.24 +19 10 33.2          18.5 GVEJ289L65
     K24J15K KB2024 05 12.98035 15 29 13.97 +19 29 20.1          18.8 GVEJ289L65
Observer details:
033 Karl Schwarzschild Observatory, Tautenburg.  Observers C. Heogner, F.
    Ludwig, M. Hartmann, B. Stecklum.  Measurer B. Stecklum.  1.34-m f/3
    Schmidt + CCD.
958 Observatoire de Dax.  Observers P. Dupouy, J. B. de Vanssay.  Measurer P.
    Dupouy.  0.43-m f/2.7 Reflector + CCD.
G02 KYSUCE Observatory, Kysucke Nove Mesto.  Observer M. Urbanik.  0.40-m
    f/6.8 Corrected Dall-Kirkham + CCD.
G34 Oberfrauendorf.  Observer T. Felber.  0.35-m f/6.3 Schmidt-Cassegrain +
    CMOS.
I41 Palomar Mountain--ZTF.  Observers G. Helou, T. A. Prince, K.
    Venkataramani, Q.-Z. Ye, Z. T. F. Collaboration.  Measurers D. A. Duev,
    H.-W. Lin, A. A. Mahabal, F. J. Masci, Q.-Z. Ye.  1.2-m f/2.4 Schmidt +
    ZTF Camera.
K62 Teplice Observatory.  Observer Z. Moravec.  0.60-m f/3.3 reflector + CMOS.
K88 GINOP-KHK, Piszkesteto.  Observer K. Sarneczky.  0.60-m Schmidt + CCD.
L65 Bredenkamp Observatory, Bremen.  Observer H. Duin.  0.23-m f/6.3 reflector
    + CMO.
M38 Harsona Observatory, Nyiregyhaza.  Observer T. Elek.  0.20-m f/3.0
    reflector + CCD.
Z80 Northolt Branch Observatory.  Observer G. Wells.  0.25-m f/8.0 Ritchey-
    Chretien + CCD.
Orbital elements:
2024 JK15                                                Earth MOID = 0.0086 AU
Epoch 2024 Mar. 31.0 TT = JDT 2460400.5                 Veres                   
M 357.01716              (2000.0)            P               Q                  
n   0.26287970     Peri.  319.71830     -0.89579651     +0.09002245             
a   2.4134114      Node   231.30482     -0.09502644     -0.99542139             
e   0.6156390      Incl.   33.89484     -0.43418728     +0.03212798             
P   3.75           H   26.10          G   0.15           U   7                  
Residuals in seconds of arc
240512 I41  0.4+  0.1+    240512 958  1.2+  0.3+    240512 K62  0.1-  0.5-
240512 I41  0.5-  0.1+    240512 G34  0.2+  0.9+    240512 K62  0.4-  0.7-
240512 I41 (1.1+  0.5+)   240512 958  1.3+  0.2+    240512 K62  0.3-  0.5-
240512 I41 (0.1-  1.2-)   240512 G34  0.2+  0.8+    240512 G02  0.3+  0.5+
240512 I41  0.6-  0.8-    240512 G34  0.2+  0.5+    240512 K62  0.2-  0.4-
240512 I41 (0.6+  1.6+)   240512 958  0.5+  0.6+    240512 G02  0.1-  0.4+
240512 I41  0.1+  0.2-    240512 033  0.1+  0.4-    240512 Z80  0.4+  0.3+
240512 I41  0.1+  0.3+    240512 033  0.2-  1.1-    240512 Z80  0.8+  0.2-
240512 M38  0.5+  2.0+    240512 033  0.0   0.7-    240512 Z80  0.7-  0.4+
240512 M38  0.9-  1.2-    240512 033  0.1+  0.6-    240512 L65  0.2-  0.3-
240512 K88 (0.2+  1.0-)   240512 G34  0.3-  0.5+    240512 L65  0.2-  0.0
240512 K88  0.3-  0.4-    240512 G02  0.2+  0.9+    240512 L65  0.2-  0.1-
Ephemeris:
2024 JK15                a,e,i = 2.41, 0.62, 34                  q = 0.9276
Date    TT    R. A. (2000) Decl.     Delta      r    Elong.  Phase     V
2024 04 13    04 33 21.9 -43 41 59   0.3533  0.9279    67.7    91.7    26.9
...
2024 04 28    04 43 56.9 -46 11 51   0.1730  0.9563    68.3   102.1    25.9
...
2024 05 06    05 00 04.2 -49 46 11   0.07265 0.9888    72.0   104.0    24.2
...
2024 05 12    14 27 05.6 -14 01 35   0.0098371.0198   167.6    12.3    16.8
2024 05 13    15 29 51.8 +19 52 02   0.01908 1.0255   141.7    37.7    19.1
2024 05 14    15 51 57.0 +29 45 57   0.03091 1.0312   131.2    47.6    20.4
...
2024 05 20    16 21 03.6 +39 53 25   0.1063  1.0684   119.6    55.4    23.4
...
2024 05 28    16 27 20.9 +41 13 27   0.2075  1.1238   117.3    53.3    24.9
...
2024 06 12    16 30 40.5 +40 00 10   0.3961  1.2400   115.7    47.5    26.3
M. P. C. Staff               (C) Copyright 2024 MPC           M.P.E.C. 2024-J289
    
    
More information about the Iaude
mailing list